P/2005 JY126 (Catalina)

Epoch 2006 Mar. 6.0 TT = JDT 2453800.5  

T 2006 Feb. 21.32695 TT                                 Nakano

q   2.1259868            (2000.0)            P               Q

n   0.13559610     Peri.  117.58793     +0.79918570     +0.57875511

a   3.7523607      Node   207.98608     -0.59631090     +0.79734970

e   0.4334269      Incl.   20.23605     +0.07560107     +0.17110228

P   7.27 (+/- 0.01 day)

From 155 observations 2005 Apr. 17-2006 Sept. 20, mean residual 0".65.

Residuals in seconds of arc 

2005/                     050609 704  0.8+  1.2+    050724 118  0.1-  0.2-  

050417 703  0.7-  0.5-    050609 704  0.2+  0.4+    050729 J97  0.3-  0.1+  

050417 703  1.0-  0.6+    050609 704  0.2-  1.3+    050730 213  0.8-  0.0   

050417 703  0.6-  0.1+    050609 372  0.9-  0.7-    050731 E12  0.4+  0.4+  

050417 703  1.0-  0.6+    050609 372  0.1-  1.0-    050731 E12  0.6-  0.0   

050503 691  0.5+  0.3+    050611 415  0.8-  0.5-    050731 E12  0.1-  0.5+  

050503 691  0.3+  0.3+    050611 415  0.1-  0.2+    050731 E12  1.5+  0.6-  

050503 691  0.4+  0.6+    050612 J78  1.3+  0.5+    050804 J97  0.1+  0.3+  

050512 703  0.1+  0.0     050616 673  0.5-  0.7+    050807 442 (0.2-  2.4+) 

050512 703  0.5+  0.9-    050616 673  0.5-  0.5+    050807 442 (1.3-  3.4+) 

050512 703  0.3-  0.5-    050616 673  0.4-  0.4+    050807 442  0.1+  1.8+  

050512 703  0.1-  0.7-    050616 673  0.5-  0.3+    050807 I77  0.3+  0.8-  

050514 704  0.1-  0.3+    050617 213  0.2-  0.4-    050807 I77  0.0   0.8-  

050514 704  0.5+  0.3+    050617 J78  1.0+  0.4+    050812 147  0.1+  0.1+  

050514 704  0.1-  0.0     050617 213  0.6+  0.4+    050826 415  0.9+  0.0   

050514 704  1.4+  0.3-    050617 J78  1.0+  0.2+    050826 415  0.8+  0.9-  

050531 703  0.2-  0.2-    050617 J78 (2.2+  0.3+)   050827 415  0.6-  0.1+  

050531 703  0.3+  0.4-    050617 213  0.5+  0.5+    050827 415  0.2-  0.2+  

050531 703  0.1+  0.8-    050625 644  0.1+  0.0     050829 215  0.3-  0.0   

050531 703  0.1-  0.9-    050625 644  0.0   0.3+    050831 A30  0.5+  0.3+  

050607 703  0.1+  0.2-    050625 644  0.2-  0.0     050831 A30  0.5+  0.1+  

050607 703  0.6+  0.6-    050627 699  0.6+  0.4-    050831 A30  1.1+  0.6+  

050607 703  0.6+  1.3-    050627 699  0.7+  0.2-    050913 703  1.2-  0.5+  

050607 703  0.5-  0.9-    050627 699  0.7+  0.1+    050913 703  0.2+  1.3-  

050607 693  0.5-  0.1+    050627 699  0.6+  0.3-    050913 703  0.6-  1.2+  

050607 693  0.1-  0.0     050627 048 (2.2+  0.2+)   050913 703  0.5-  0.7-  

050607 703  0.1-  0.2-    050627 048  1.1-  1.6+    050913 J97  0.0   0.8-  

050607 693  0.7-  0.1+    050627 048  0.1-  1.7+    050924 703  0.9+  0.1+  

050607 693  0.6-  0.1+    050627 048  0.5-  0.1+    050924 703  1.2-  1.5-  

050607 703  0.2+  0.9-    050627 048  1.0+  0.5-    050924 703  0.6-  1.4-  

050607 703  0.2-  0.7-    050628 048  1.0+  0.1+    050924 703  1.0+  0.5+  

050607 703 (1.1-  2.0-)   050628 048  1.1-  0.6+    2006/                   

050607 A17  1.2+  0.2-    050628 048  0.2+  1.0-    060903 157  0.7-  0.5+  

050607 163  1.2+  1.0-    050628 048  0.4-  0.4-    060903 157  0.3-  0.1-  

050607 176  0.0   0.6-    050628 048  1.8-  0.1-    060904 157  0.7+  0.3-  

050607 176  0.2-  0.4-    050701 130  0.1-  0.1+    060904 157  1.0+  0.3-  

050607 163  1.6+  1.1+    050701 130  0.0   0.4-    060910 204  0.6-  0.6-  

050607 176  0.1-  0.0     050702 J76  0.0   0.2+    060910 204  1.1-  0.2+  

050607 176  0.1-  0.1-    050702 J76  0.4+  0.3+    060913 673  0.2-  0.7-  

050607 203  0.6-  0.8-    050702 J76  0.0   1.0+    060913 673  0.1-  0.7-  

050607 176  0.3-  0.1-    050718 673  0.2+  0.7+    060913 673  0.0   0.1-  

050607 163  0.6+  0.0     050718 673  0.2-  0.4+    060917 J97  0.9-  0.3-  

050607 A17  0.5-  0.8-    050718 673  0.2-  0.6+    060917 704 (2.3-  0.2-) 

050607 163  1.0+  0.1+    050718 673  0.1-  0.5+    060917 704 (2.5-  0.4+) 

050607 A17  0.1+  0.2-    050718 673  0.3-  0.2+    060917 704  0.1-  1.3-  

050607 203 (4.5-  0.8-)   050722 673  0.8-  0.2-    060917 704  1.3+  0.5-  

050608 H93  0.5-  0.6+    050722 673  0.6-  0.1+    060917 699  0.9-  1.1+  

050608 H93  0.2+  1.9+    050722 673  0.3-  0.2+    060917 699  1.3-  0.8+  

050608 H93  0.2+  1.1+    050722 673  0.6-  0.5+    060917 699  1.2-  0.3-  

050608 H45 (5.0-  1.3-)   050724 F60 (0.3-  2.1-)   060917 699  0.6+  0.9+  

050608 H45  1.0-  1.7-    050724 F60  0.6-  0.1-    060920 J97  0.6+  0.2-  

050608 H45  0.6-  0.9-    050724 F60  0.2-  0.1+    060920 704  1.0+  1.1+  

050608 H45  0.5-  0.2+    050724 F60  0.6-  0.0     060920 704  0.1-  0.0   

050608 H45 (0.3- 11.2-)   050724 F60  0.5-  0.6+    060920 704  0.9+  0.1-  

050609 704  0.4+  0.9+    050724 118  0.5-  0.5-    060920 704  0.3+  1.1+  

050609 704  0.4+  0.0     050724 118  0.1-  0.3-    060920 704  0.7+  0.3-  



NAKANO

         **** Don't distribute anyone except personal use only ****

                (C) Copyright 2006 OAA/ComputingSection

write mail from CFAD0::NAKANO on 2006-09-25 05:53:58(JST).

 





    P/2005 JY126 (Catalina)

Epoch 2006 Mar. 6.0 TT = JDT 2453800.5  

T 2006 Feb. 21.32104 TT                                 Nakano

q   2.1259388            (2000.0)            P               Q

n   0.13558707     Peri.  117.58874     +0.79919138     +0.57874806

a   3.7525273      Node   207.98576     -0.59630349     +0.79735507

e   0.4334648      Incl.   20.23590     +0.07559948     +0.17110108

P   7.27 (+/- 0.04 day)

From 134 observations 2005 Apr. 17-Sept. 24, mean residual 0".65.



NAKANO

         **** Don't distribute anyone except personal use only ****

                (C) Copyright 2005 OAA/ComputingSection

write mail from CFAD0::NAKANO on 2005-11-03 23:39:18(JST).

 





    P/2005 JY126 (Catalina)

Epoch 2006 Mar. 6.0 TT = JDT 2453800.5  

T 2006 Feb. 21.30550 TT                                 Nakano

q   2.1258550            (2000.0)            P               Q

n   0.13557258     Peri.  117.58911     +0.79919083     +0.57875053

a   3.7527947      Node   207.98517     -0.59630524     +0.79735324

e   0.4335275      Incl.   20.23552     +0.07559151     +0.17110127

P   7.27 (+/- 0.06 day)

From 124 observations 2005 Apr. 17-Aug. 31, mean residual 0".60.



NAKANO

         **** Don't distribute anyone except personal use only ****

                (C) Copyright 2005 OAA/ComputingSection

write mail from CFAD0::NAKANO on 2005-09-12 05:45:24(JST).

 

    P/2005 JY126 (Catalina)                                               

T 2006 Feb. 21.17091 TT                                 Nakano

q   2.1257583            (2000.0)            P               Q

n   0.13550608     Peri.  117.56704     +0.79892983     +0.57912636

a   3.7540224      Node   207.97996     -0.59667387     +0.79707238

e   0.4337385      Incl.   20.23189     +0.07544157     +0.17113822

P   7.27 (+/- 0.17 day)

From 69 observations 2005 Apr. 17-June 17.



NAKANO

         **** Don't distribute anyone except personal use only ****

                (C) Copyright 2005 OAA/ComputingSection

write mail from CFAD0::NAKANO on 2005-07-03 02:21:28(JST).



◎P/2005 JY126の軌道と予報位置です



  6月8日のシェロ−ドの観測が報告されました.氏のCCD全光度は17.7等でした.



    P/2005 JY126 (Catalina)

T 2006 Feb. 21.11425 TT                                 Nakano

q   2.1257602            (2000.0)            P               Q

n   0.13555536     Peri.  117.56549     +0.79883859     +0.57928217

a   3.7531125      Node   207.96969     -0.59681685     +0.79695598

e   0.4336007      Incl.   20.22508     +0.07527655     +0.17115298

P   7.27 (+/- 0.20 day)

From 34 observations 2005 Apr. 17-June 8.

 

Date/        TT  R.A.(2000) Decl.     Delta   r     Daily motion  Mag.  Moon Age

              h    h  m       。  ,                      ,  / PA 。  m1      。

2005 June 10 14  15 51.97  -01 07.4   1.893  2.819    11.5 / 298  17.4  112  .12

          11 14  15 51.30  -01 02.0   1.894  2.815    11.2 / 298  17.4  101  .19

          12 14  15 50.64  -00 56.7   1.896  2.811    10.9 / 297  17.4   90  .27

          13 14  15 50.00  -00 51.7   1.897  2.807    10.7 / 297  17.4   79  .36

          14 14  15 49.36  -00 46.8   1.899  2.803    10.4 / 297  17.4   67  .45

          15 14  15 48.74  -00 42.2   1.901  2.798    10.1 / 296  17.4   56  .55

          16 14  15 48.14  -00 37.8   1.904  2.794     9.8 / 296  17.4   45  .65

          17 14  15 47.55  -00 33.5   1.906  2.790     9.5 / 295  17.4   34  .75

          18 14  15 46.98  -00 29.5   1.909  2.786     9.1 / 295  17.4   26  .83

          19 14  15 46.43  -00 25.7   1.912  2.782     8.8 / 294  17.4   22  .91

          20 14  15 45.89  -00 22.0   1.915  2.778     8.5 / 294  17.3   26  .96

          21 14  15 45.37  -00 18.6   1.919  2.773     8.2 / 293  17.3   36  .99

          22 14  15 44.87  -00 15.4   1.922  2.769     7.8 / 293  17.3   49 1.00

          23 14  15 44.39  -00 12.4   1.926  2.765     7.5 / 292  17.3   62  .97

          24 14  15 43.93  -00 09.5   1.930  2.761     7.1 / 292  17.3   76  .91

          25 14  15 43.49  -00 06.9   1.934  2.757     6.8 / 291  17.3   90  .83

          26 14  15 43.07  -00 04.5   1.938  2.753     6.4 / 290  17.3  103  .74

          27 14  15 42.67  -00 02.3   1.943  2.749     6.1 / 289  17.3  117  .63

          28 14  15 42.29  -00 00.3   1.947  2.744     5.7 / 289  17.3  129  .52

          29 14  15 41.93  +00 01.5   1.952  2.740     5.3 / 288  17.3  141  .41

          30 14  15 41.59  +00 03.2   1.957  2.736     4.9 / 287  17.3  150  .31

     July  1 14  15 41.27  +00 04.6   1.962  2.732     4.6 / 286  17.3  157  .22

           2 14  15 40.98  +00 05.8   1.967  2.728     4.2 / 284  17.3  157  .14

           3 14  15 40.71  +00 06.9   1.973  2.724     3.8 / 283  17.3  152  .08

           4 14  15 40.46  +00 07.7   1.978  2.720     3.4 / 281  17.3  143  .04

           5 14  15 40.24  +00 08.4   1.984  2.716     3.1 / 279  17.3  133  .01

           6 14  15 40.03  +00 08.8   1.990  2.712     2.7 / 276  17.3  123  .00

           7 14  15 39.86  +00 09.1   1.996  2.707     2.3 / 273  17.3  112  .01

           8 14  15 39.70  +00 09.2   2.002  2.703     2.0 / 268  17.3  101  .04

           9 14  15 39.57  +00 09.1   2.008  2.699     1.6 / 261  17.3   90  .08

          10 14  15 39.47  +00 08.9   2.015  2.695     1.3 / 251  17.3   79  .14

NAKANO

         **** Don't distribute anyone except personal use only ****

                (C) Copyright 2005 OAA/ComputingSection

write mail from CFAD0::NAKANO on 2005-06-10 05:44:52(JST).

 

戻ります。